TimeEDT,TemperatureF,Dew PointF,Humidity,Sea Level PressureIn,VisibilityMPH,Wind Direction,Wind SpeedMPH,Gust SpeedMPH,PrecipitationIn,Events,Conditions,WindDirDegrees,DateUTC
12:51 AM,46.0,42.1,86,30.00,10.0,Calm,Calm,-,N/A,,Overcast,0,2011-10-19 04:51:00
1:51 AM,46.9,43.0,86,30.01,10.0,Calm,Calm,-,N/A,,Overcast,0,2011-10-19 05:51:00
2:51 AM,44.1,42.1,93,30.01,10.0,Calm,Calm,-,N/A,,Mostly Cloudy,0,2011-10-19 06:51:00
3:51 AM,43.0,41.0,93,30.02,10.0,Calm,Calm,-,N/A,,Partly Cloudy,0,2011-10-19 07:51:00
4:51 AM,43.0,41.0,93,30.03,10.0,Calm,Calm,-,N/A,,Scattered Clouds,0,2011-10-19 08:51:00
5:51 AM,44.1,42.1,93,30.02,10.0,Calm,Calm,-,N/A,,Overcast,0,2011-10-19 09:51:00
6:51 AM,45.0,43.0,93,30.02,10.0,Calm,Calm,-,0.00,Rain,Light Rain,0,2011-10-19 10:51:00
7:51 AM,45.0,43.0,93,30.04,10.0,Calm,Calm,-,0.01,,Overcast,0,2011-10-19 11:51:00
8:51 AM,46.0,44.1,93,30.06,10.0,Calm,Calm,-,N/A,,Overcast,0,2011-10-19 12:51:00
9:51 AM,48.0,43.0,83,30.06,10.0,Calm,Calm,-,N/A,,Overcast,0,2011-10-19 13:51:00
10:51 AM,48.0,45.0,89,30.05,10.0,ENE,3.5,-,N/A,,Overcast,70,2011-10-19 14:51:00
11:51 AM,48.9,44.1,83,30.04,10.0,Calm,Calm,-,N/A,,Overcast,0,2011-10-19 15:51:00
12:51 PM,50.0,45.0,83,30.00,10.0,Calm,Calm,-,N/A,,Overcast,0,2011-10-19 16:51:00
1:51 PM,53.6,44.6,72,29.96,10.0,NNW,4.6,-,N/A,,Mostly Cloudy,330,2011-10-19 17:51:00
2:51 PM,53.1,44.1,71,29.95,10.0,East,3.5,-,N/A,,Overcast,80,2011-10-19 18:51:00
3:51 PM,52.0,46.0,80,29.94,10.0,Calm,Calm,-,0.00,Rain,Light Rain,0,2011-10-19 19:51:00
4:51 PM,52.0,46.9,83,29.93,10.0,Calm,Calm,-,0.03,Rain,Light Rain,0,2011-10-19 20:51:00
5:51 PM,50.0,48.9,96,29.92,10.0,Calm,Calm,-,0.01,Rain,Light Rain,0,2011-10-19 21:51:00
6:51 PM,50.0,46.9,89,29.90,10.0,ENE,4.6,-,0.02,Rain,Light Rain,70,2011-10-19 22:51:00
7:12 PM,48.2,46.4,93,29.88,10.0,Calm,Calm,-,0.00,Rain,Light Rain,0,2011-10-19 23:12:00
7:51 PM,48.0,46.9,96,29.89,10.0,Calm,Calm,-,0.01,Rain,Light Rain,0,2011-10-19 23:51:00
8:37 PM,48.2,46.4,93,29.84,10.0,Variable,4.6,-,0.00,,Overcast,0,2011-10-20 00:37:00
8:51 PM,48.9,46.0,90,29.86,10.0,NNE,4.6,-,0.00,,Overcast,30,2011-10-20 00:51:00
9:51 PM,48.9,46.9,93,29.85,10.0,NNE,4.6,-,N/A,,Overcast,30,2011-10-20 01:51:00
10:00 PM,48.2,46.4,93,29.83,10.0,NE,4.6,-,N/A,,Overcast,40,2011-10-20 02:00:00
10:51 PM,50.0,46.9,89,29.79,10.0,North,3.5,-,N/A,,Overcast,10,2011-10-20 02:51:00
11:51 PM,48.9,48.0,97,29.74,10.0,NNW,3.5,-,N/A,,Overcast,340,2011-10-20 03:51:00